Location: Gaast
(52.9002°N, 5.8891°E)
Time: 03:10:55
(UTC+00:00)

Cosmos 2344 - Pass Details

Date: 18 November 2025
Orbit: 1197 x 3045 km, 63.3° (Epoch: 15 December)

Event Time Altitude Azimuth Distance (km) Brightness Sun altitude
Rises 18:21:29 0° 312° (NW) 4,174 7.0 -24.3°
Reaches altitude 10° 18:23:59 10° 312° (NW) 3,279 6.3 -24.7°
Maximum altitude 18:31:45 80° 227° (SW) 1,518 3.9 -25.9°
Enters shadow 18:38:34 24° 144° (SE) 3,122 5.2 -26.9°
